Content
SEND FEEDBACK

Daily
Averages
Monthly
Summary
Germany

BOCHUM, GERMANY


Home > Europe > Germany
Elevation: 223 feet     Latitude: 51 30N     Longitude: 007 12E

WEATHER
 
SELECT A DAY
Number of Records: 184,132;   Date Range: 7/1/96 - 10/30/14
 
SHARE

PRINT THIS DATA

[ ← Previous Day ]
WEATHER ALMANAC - JANUARY 31, 2013
[ Next Day → ]
[ °C ]   °F
Weather ElementAverageHighLow
Temperature45 °F46.4 °F (11:20 am)41 °F (1:20 pm)
Dewpoint35.2 °F37.4 °F (1:20 pm)30.2 °F (12:20 pm)
Humidity69 %87 % (1:20 pm)53 % (12:20 pm)
Barometer29.83 in29.95 in (5:50 am)29.74 in (2:50 pm)
Wind Speed23.1 mph32.2 mph (2:20 pm)
Wind Gust46 mph (2:20 pm)
Weather ElementAverage
Visibility6 mi
Wind DirectionWSW (240.3 °)

Weather ElementTotal
Precipitation---
Heating Degree Days21.3 (Base 65)
Averaged from 33 records on January 31, 2013
WEATHER CONDITIONS BREAKOUT
WIND DIRECTION BREAKOUT
WEATHER BY HOUR - JANUARY 31, 2013
[ °C ]   °F
Local TimeTemperatureDewpointHumidityBarometerVisibilityWind DirectionWind SpeedGust SpeedPrecipitationEventsConditions
5:50 AM44.6 °F35.6 °F71 %29.95 in6.2 miWSW (250°)23.0 mphMostly Cloudy
6:20 AM44.6 °F35.6 °F71 %29.95 in6.2 miWSW (240°)21.9 mph34.5 mphMostly Cloudy
6:50 AM44.6 °F35.6 °F71 %29.92 in6.2 miWSW (240°)20.7 mph32.2 mphScattered Clouds
7:20 AM44.6 °F35.6 °F71 %29.92 in6.2 miWSW (240°)21.9 mphScattered Clouds
7:50 AM44.6 °F35.6 °F71 %29.95 in6.2 miWSW (240°)23.0 mph35.7 mphPartly Cloudy
8:20 AM44.6 °F35.6 °F71 %29.92 inSW (230°)20.7 mphClear
8:50 AM44.6 °F35.6 °F71 %29.92 inSW (230°)21.9 mph33.4 mphClear
9:20 AM44.6 °F35.6 °F71 %29.92 inSW (230°)23.0 mphClear
9:50 AM44.6 °F35.6 °F71 %29.89 inSW (220°)20.7 mphClear
10:20 AM44.6 °F35.6 °F71 %29.89 in6.2 miSW (220°)23.0 mphScattered Clouds
10:50 AM44.6 °F33.8 °F66 %29.83 in6.2 miSSW (210°)24.2 mphScattered Clouds
11:20 AM46.4 °F32.0 °F57 %29.83 in6.2 miSW (220°)23.0 mphMostly Cloudy
11:50 AM46.4 °F32.0 °F57 %29.83 in6.2 miSSW (210°)23.0 mphMostly Cloudy
12:20 PM46.4 °F30.2 °F53 %29.80 in6.2 miSW (220°)24.2 mph39.1 mphMostly Cloudy
12:50 PM44.6 °F33.8 °F66 %29.80 in3.7 miSW (230°)29.9 mph44.9 mphRainRain
1:20 PM41.0 °F37.4 °F87 %29.83 in2.5 miWSW (240°)20.7 mphRainRain
1:50 PM42.8 °F37.4 °F81 %29.77 in6.2 miSW (220°)24.2 mphMostly Cloudy
2:20 PM44.6 °F37.4 °F76 %29.77 in6.2 miWSW (240°)32.2 mph46.0 mphMostly Cloudy
2:50 PM44.6 °F37.4 °F76 %29.74 in6.2 miWSW (240°)28.8 mph40.3 mphScattered Clouds
3:20 PM44.6 °F37.4 °F76 %29.74 in6.2 miWSW (240°)27.6 mph40.3 mphMostly Cloudy
3:50 PM44.6 °F37.4 °F76 %29.74 in6.2 miWSW (240°)28.8 mphMostly Cloudy
4:20 PM46.4 °F37.4 °F71 %29.74 in6.2 miWSW (240°)27.6 mph42.6 mphRainLight Rain
4:50 PM46.4 °F37.4 °F71 %29.74 in6.2 miWSW (250°)23.0 mphScattered Clouds
5:20 PM44.6 °F37.4 °F76 %29.74 in6.2 miWSW (250°)19.6 mphMostly Cloudy
5:50 PM46.4 °F37.4 °F71 %29.74 in6.2 miWSW (250°)23.0 mph36.8 mphLight Drizzle
6:20 PM46.4 °F35.6 °F66 %29.77 in6.2 miWest (270°)19.6 mph35.7 mphMostly Cloudy
6:50 PM46.4 °F33.8 °F62 %29.80 in6.2 miWest (260°)20.7 mph33.4 mphMostly Cloudy
7:20 PM46.4 °F33.8 °F62 %29.80 in6.2 miWest (260°)19.6 mph32.2 mphMostly Cloudy
7:50 PM46.4 °F33.8 °F62 %29.80 in6.2 miWest (260°)19.6 mph32.2 mphScattered Clouds
8:20 PM44.6 °F33.8 °F66 %29.80 in6.2 miWest (260°)20.7 mph33.4 mphScattered Clouds
8:50 PM46.4 °F32.0 °F57 %29.80 in6.2 miWest (260°)21.9 mph36.8 mphPartly Cloudy
9:20 PM44.6 °F33.8 °F66 %29.83 in6.2 miWest (260°)20.7 mph36.8 mphScattered Clouds
9:50 PM44.6 °F33.8 °F66 %29.83 in6.2 miWest (260°)20.7 mphScattered Clouds
Hourly data recorded from EDLW, located miles away from Bochum, Germany







STORIES FROM OUR PARTNERS